Weather History for KFET - October, 2013

Change the Weather History Date:

Friday, October 25, 2013

  Actual Average Record
Temperature  
Mean Temperature 44 °F -  
Max Temperature 60 °F 62 °F 84 °F (1952)
Min Temperature 28 °F 38 °F 19 °F (1976)
Degree Days  
Heating Degree Days 21    
Moisture  
Dew Point 31 °F    
Average Humidity 61    
Maximum Humidity 94    
Minimum Humidity 39    
Precipitation  
Precipitation 0.00 in - - ()
Sea Level Pressure  
Sea Level Pressure 30.24 in    
Wind  
Wind Speed 6 mph (SSW)    
Max Wind Speed 20 mph    
Max Gust Speed 28 mph    
Visibility 10 miles    
Events      
Averages and records for this station are not official NWS values.
T = Trace of Precipitation, MM = Missing Value Source: NWS Daily Summary

Daily Weather History Graph

Daily Weather History Graph

Search for Another Location

Airport or City:

Trip Planner

Search our weather history database for the weather conditions in past years. The results will help you decide how hot, cold, wet, or windy it might be!

Date:

Astronomy

Oct. 25, 2013 Rise Set
Actual Time 7:49 AM CDT 6:29 PM CDT
Civil Twilight 7:21 AM CDT 6:58 PM CDT
Nautical Twilight 6:48 AM CDT 7:30 PM CDT
Astronomical Twilight 6:16 AM CDT 8:02 PM CDT
Moon 11:49 PM CDT (10/25) 1:32 PM CDT (10/25)
Length of Visible Light 11h 36m
Length of Day
10h 40m
Waning Gibbous, 62% of the Moon is Illuminated
Oct 25
Waning Gibbous
Oct 26
Last Quarter
Nov 3
New
Nov 9
First Quarter
Nov 17
Full

Hourly Weather History & Observations

Time (CDT) Temp. Windchill Dew Point Humidity Pressure Visibility Wind Dir Wind Speed Gust Speed Precip Events Conditions
12:15 AM 31.6 °F 28.3 °F 28.0 °F 87% 30.39 in 10.0 mi SSE 3.5 mph - N/A   Clear
12:35 AM 32.0 °F - 28.4 °F 87% 30.39 in 10.0 mi Calm Calm - N/A   Clear
12:55 AM 32.9 °F - 28.2 °F 83% 30.39 in 10.0 mi Calm Calm - N/A   Clear
1:15 AM 32.2 °F - 27.9 °F 84% 30.39 in 10.0 mi Calm Calm - N/A   Clear
1:35 AM 30.7 °F - 27.5 °F 88% 30.39 in 10.0 mi Calm Calm - N/A   Clear
1:55 AM 29.3 °F - 26.6 °F 90% 30.39 in 10.0 mi Calm Calm - N/A   Clear
2:15 AM 30.2 °F - 27.7 °F 90% 30.39 in 10.0 mi Calm Calm - N/A   Clear
2:35 AM 28.4 °F - 26.8 °F 94% 30.39 in 10.0 mi Calm Calm - N/A   Clear
2:55 AM 28.9 °F - 27.5 °F 94% 30.38 in 10.0 mi Calm Calm - N/A   Clear
3:15 AM 30.2 °F - 28.0 °F 92% 30.38 in 10.0 mi Calm Calm - N/A   Clear
3:35 AM 30.7 °F - 28.0 °F 90% 30.38 in 10.0 mi Calm Calm - N/A   Clear
3:55 AM 29.3 °F - 27.5 °F 93% 30.37 in 10.0 mi Calm Calm - N/A   Clear
4:15 AM 30.4 °F - 28.0 °F 91% 30.37 in 10.0 mi Calm Calm - N/A   Clear
4:35 AM 31.5 °F - 26.8 °F 83% 30.36 in 10.0 mi Calm Calm - N/A   Clear
4:55 AM 32.0 °F - 26.6 °F 80% 30.36 in 10.0 mi Calm Calm - N/A   Clear
5:15 AM 32.9 °F - 26.2 °F 76% 30.36 in 10.0 mi Calm Calm - N/A   Clear
5:35 AM 30.9 °F - 26.6 °F 84% 30.36 in 10.0 mi Calm Calm - N/A   Clear
5:55 AM 30.0 °F - 27.3 °F 90% 30.36 in 10.0 mi Calm Calm - N/A   Scattered Clouds
6:15 AM 31.5 °F - 27.5 °F 85% 30.37 in 10.0 mi Calm Calm - N/A   Mostly Cloudy
6:35 AM 33.4 °F - 29.1 °F 84% 30.36 in 10.0 mi Calm Calm - N/A   Overcast
6:55 AM 36.1 °F 30.6 °F 28.4 °F 73% 30.35 in 10.0 mi South 6.9 mph - N/A   Mostly Cloudy
7:15 AM 37.4 °F 32.8 °F 28.8 °F 71% 30.36 in 10.0 mi South 5.8 mph - N/A   Overcast
7:35 AM 37.4 °F 34.9 °F 29.3 °F 73% 30.35 in 10.0 mi South 3.5 mph - N/A   Overcast
7:55 AM 37.2 °F 31.9 °F 29.3 °F 73% 30.34 in 10.0 mi South 6.9 mph - N/A   Overcast
8:15 AM 37.0 °F 33.3 °F 29.7 °F 75% 30.34 in 10.0 mi South 4.6 mph - N/A   Overcast
8:35 AM 37.2 °F 33.6 °F 30.4 °F 76% 30.34 in 10.0 mi SSW 4.6 mph - N/A   Overcast
8:55 AM 37.6 °F 32.3 °F 30.6 °F 76% 30.34 in 10.0 mi South 6.9 mph - N/A   Scattered Clouds
9:15 AM 39.4 °F 33.8 °F 30.7 °F 71% 30.33 in 10.0 mi SSW 8.1 mph - N/A   Clear
9:35 AM 41.4 °F 34.7 °F 31.3 °F 67% 30.33 in 10.0 mi SSW 11.5 mph 16.1 mph N/A   Clear
9:55 AM 42.8 °F 37.5 °F 32.0 °F 66% 30.33 in 10.0 mi SSW 9.2 mph - N/A   Clear
10:15 AM 45.3 °F 38.7 °F 32.0 °F 60% 30.32 in 10.0 mi SSW 15.0 mph - N/A   Clear
10:35 AM 46.8 °F - 31.8 °F 56% 30.31 in 10.0 mi SW 12.7 mph 20.7 mph N/A   Clear
10:55 AM 48.9 °F - 32.2 °F 52% 30.31 in 10.0 mi SW 15.0 mph 18.4 mph N/A   Clear
11:15 AM 50.0 °F - 31.6 °F 49% 30.30 in 10.0 mi WNW 17.3 mph 23.0 mph N/A   Clear
11:35 AM 51.4 °F - 32.0 °F 47% 30.30 in 10.0 mi SSW 17.3 mph 21.9 mph N/A   Clear
11:55 AM 52.7 °F - 32.2 °F 46% 30.29 in 10.0 mi SW 17.3 mph 21.9 mph N/A   Clear
12:15 PM 53.6 °F - 32.2 °F 44% 30.28 in 10.0 mi SSW 13.8 mph 23.0 mph N/A   Clear
12:35 PM 54.5 °F - 32.4 °F 43% 30.27 in 10.0 mi SSW 15.0 mph 21.9 mph N/A   Clear
12:55 PM 56.1 °F - 33.3 °F 42% 30.26 in 10.0 mi SSW 19.6 mph 24.2 mph N/A   Clear
1:15 PM 56.7 °F - 33.3 °F 41% 30.25 in 10.0 mi South 16.1 mph 25.3 mph N/A   Clear
1:35 PM 57.6 °F - 34.0 °F 41% 30.22 in 10.0 mi South 17.3 mph 25.3 mph N/A   Clear
1:55 PM 58.1 °F - 34.5 °F 41% 30.21 in 10.0 mi SSW 15.0 mph 27.6 mph N/A   Clear
2:15 PM 58.5 °F - 34.5 °F 41% 30.20 in 10.0 mi SSW 18.4 mph 26.5 mph N/A   Clear
2:35 PM 58.8 °F - 34.7 °F 40% 30.18 in 10.0 mi SSW 19.6 mph 24.2 mph N/A   Clear
2:55 PM 59.5 °F - 35.6 °F 41% 30.17 in 10.0 mi SSW 13.8 mph 23.0 mph N/A   Clear
3:15 PM 59.4 °F - 35.1 °F 40% 30.16 in 10.0 mi SSW 19.6 mph 24.2 mph N/A   Clear
3:35 PM 59.7 °F - 34.9 °F 39% 30.15 in 10.0 mi South 13.8 mph 21.9 mph N/A   Clear
3:55 PM 59.9 °F - 35.1 °F 39% 30.14 in 10.0 mi SSW 15.0 mph - N/A   Clear
4:15 PM 60.4 °F - 35.2 °F 39% 30.13 in 10.0 mi SSW 17.3 mph 24.2 mph N/A   Clear
4:35 PM 60.3 °F - 34.9 °F 39% 30.12 in 10.0 mi SSW 16.1 mph 20.7 mph N/A   Clear
4:55 PM 59.9 °F - 34.9 °F 39% 30.11 in 10.0 mi South 13.8 mph 18.4 mph N/A   Clear
5:15 PM 59.2 °F - 34.5 °F 40% 30.11 in 10.0 mi South 11.5 mph 20.7 mph N/A   Clear
5:35 PM 58.6 °F - 33.8 °F 39% 30.10 in 10.0 mi SSW 12.7 mph 18.4 mph N/A   Clear
5:55 PM 57.6 °F - 34.0 °F 41% 30.09 in 10.0 mi South 12.7 mph - N/A   Clear
6:15 PM 56.8 °F - 33.4 °F 41% 30.08 in 10.0 mi South 10.4 mph 18.4 mph N/A   Clear
6:35 PM 55.4 °F - 33.4 °F 43% 30.07 in 10.0 mi South 11.5 mph - N/A   Clear
6:55 PM 54.5 °F - 33.3 °F 45% 30.08 in 10.0 mi SSW 6.9 mph - N/A   Clear
7:15 PM 54.0 °F - 33.1 °F 45% 30.08 in 10.0 mi South 9.2 mph - N/A   Clear
7:35 PM 53.2 °F - 33.1 °F 46% 30.07 in 10.0 mi South 10.4 mph - N/A   Clear
7:55 PM 52.9 °F - 32.9 °F 47% 30.08 in 10.0 mi SSW 12.7 mph 17.3 mph N/A   Clear
8:15 PM 52.0 °F - 32.9 °F 48% 30.08 in 10.0 mi SSW 10.4 mph 18.4 mph N/A   Clear
8:35 PM 51.1 °F - 33.1 °F 50% 30.08 in 10.0 mi SSW 9.2 mph - N/A   Clear
8:55 PM 50.4 °F - 33.1 °F 52% 30.07 in 10.0 mi SSW 9.2 mph - N/A   Clear
9:15 PM 50.2 °F - 32.9 °F 52% 30.07 in 10.0 mi SSW 11.5 mph 16.1 mph N/A   Clear
9:35 PM 50.2 °F - 32.0 °F 50% 30.08 in 10.0 mi SSW 12.7 mph 17.3 mph N/A   Clear
9:55 PM 49.1 °F - 32.4 °F 53% 30.08 in 10.0 mi SSW 10.4 mph - N/A   Clear
10:15 PM 48.4 °F - 32.0 °F 53% 30.07 in 10.0 mi SSW 10.4 mph - N/A   Clear
10:35 PM 48.4 °F - 32.0 °F 53% 30.06 in 10.0 mi SSW 10.4 mph 16.1 mph N/A   Clear
10:55 PM 48.6 °F - 31.8 °F 52% 30.06 in 10.0 mi SSW 12.7 mph 18.4 mph N/A   Clear
11:15 PM 47.7 °F - 31.8 °F 54% 30.06 in 10.0 mi SSW 11.5 mph 16.1 mph N/A   Clear
11:35 PM 46.9 °F - 32.0 °F 56% 30.05 in 10.0 mi SSW 9.2 mph - N/A   Clear
11:55 PM 46.4 °F 42.9 °F 32.0 °F 57% 30.05 in 10.0 mi SW 6.9 mph - N/A   Clear